Location: Newark
(7.0858°N, 171.3717°E)
Time: 17:34:44
(UTC+00:00)

Hubble Space Telescope - Pass Details

Date: 04 October 2021
Orbit: 535 x 538 km, 28.5° (Epoch: 17 October)

Event Time Altitude Azimuth Distance (km) Brightness Sun altitude
Exits shadow 17:05:02 54° 301° (WNW) 652 0.8 -19.9°
Maximum altitude 17:05:29 58° 331° (NNW) 625 0.8 -19.8°
Drops below altitude 10° 17:09:32 10° 51° (NE) 1,777 4.1 -18.8°
Sets 17:11:49 0° 55° (NE) 2,666 5.2 -18.2°
